Regional Weather Roundup
Issued by NWS

Home | Current Version | Previous Version | Graphics & Text | Print | Product List | Glossary On
Versions: 1 2 3 4 5 6 7 8 9 10 11 12 13 14 15 16 17 18 19 20 21 22 23 24 25 26 27
000
ASUS45 KTFX 231610
RWRMT
MONTANA REGIONAL WEATHER ROUNDUP
NATIONAL WEATHER SERVICE GREAT FALLS MT
1000 AM MDT TUE MAY 23 2017

NOTE: "FAIR" INDICATES FEW OR NO CLOUDS BELOW 12000 FEET WITH NO
SIGNIFICANT WEATHER AND/OR OBSTRUCTIONS TO VISIBILITY.

MTZ001>007-043-231700-
WEST OF THE DIVIDE

CITY           SKY/WX    TMP DP  RH WIND       PRES   REMARKS
KALISPELL      SUNNY     62  44  51 NE3       30.08F
MISSOULA       SUNNY     59  44  57 CALM      30.15F
BUTTE          SUNNY     57  37  47 CALM      30.21F
MULLAN PASS    SUNNY     58  38  47 VRB3      30.19F
ANACONDA         N/A     63  39  42 SE9       30.17F
DEER LODGE       N/A     61  45  55 NE3       30.19F
EUREKA           N/A     61  43  51 CALM      30.06F
HAMILTON         N/A     63  43  48 E3        30.13F
PLAINS           N/A     62  50  65 CALM      30.08
RONAN            N/A     67  46  46 CALM      30.13S
$$

MTZ008-052>055-231700-
SOUTHWEST MONTANA

CITY           SKY/WX    TMP DP  RH WIND       PRES   REMARKS
BOZEMAN        CLOUDY    59  42  53 CALM      30.19F
DILLON         SUNNY     58  41  53 SW6       30.21F
W YELLOWSTONE  SUNNY     50  34  53 VRB3      30.29F
ENNIS          SUNNY     59  39  47 CALM      30.26F
$$

MTZ009-010-012-014-046-048-049-054-231700-
EAST SLOPES AND CENTRAL MONTANA

CITY           SKY/WX    TMP DP  RH WIND       PRES   REMARKS
CUT BANK       MOSUNNY   61  42  49 SE5       30.05F
GREAT FALLS    CLOUDY    66  42  41 SW14      30.07F
HELENA         SUNNY     60  44  55 CALM      30.15F
CHOTEAU          N/A     68  46  45 SW9       30.08F
CONRAD           N/A     69  55  60 E2        30.07F
$$

MTZ011-013-016-021-045-047-050-051-231700-
NORTH CENTRAL MONTANA

CITY           SKY/WX    TMP DP  RH WIND       PRES   REMARKS
HAVRE          PTSUNNY   66  39  37 CALM      30.06F
LEWISTOWN      SUNNY     62  37  39 CALM      30.13F
N BAR RANCH      N/A     61  36  39 S16G24    30.18S
CHINOOK          N/A     64  39  39 E8        30.07F
FORT BENTON      N/A    N/A N/A N/A MISG      30.08F
$$

MTZ017>020-022>027-061-062-231700-
NORTHEAST MONTANA

CITY           SKY/WX    TMP DP  RH WIND       PRES   REMARKS
GLASGOW        SUNNY     62  36  37 S3        30.14F
JORDAN           N/A     64  31  28 SW6       30.15F
SIDNEY         SUNNY     61  35  37 S5        30.17S
WOLF POINT     SUNNY     61  36  39 S5        30.15F
MALTA          SUNNY     59  43  55 E6        30.11F
PLENTYWOOD       N/A     63  36  36 S3        30.14F
POPLAR           N/A     63  37  39 CALM      30.15F
SCOBEY           N/A     62  32  32 MISG      30.12
$$

MTZ028>42-056>058-231700-
SOUTHCENTRAL AND SOUTHEAST MONTANA

CITY           SKY/WX    TMP DP  RH WIND       PRES   REMARKS
BAKER          SUNNY     58  37  45 NW8       30.17F
BILLINGS       MOSUNNY   57  41  55 S8        30.18F
LIVINGSTON     SUNNY     62  42  47 CALM      30.17F
MILES CITY     SUNNY     62  37  39 CALM      30.17F
BIG TIMBER     SUNNY     55  43  62 CALM      30.20F
EKALAKA          N/A     57  37  47 NW7       30.14
FORSYTH          N/A     61  36  39 CALM      30.17F
LAUREL           N/A     57  40  53 S5        30.15F
ROUNDUP          N/A     60  35  39 S6        30.07F
$$

REGIONAL REPORTS...DAKOTAS

CITY           SKY/WX    TMP DP  RH WIND       PRES   REMARKS
WILLISTON      SUNNY     63  34  33 SE6       30.17S
MINOT          SUNNY     61  36  39 N12G21    30.13F
DICKINSON      SUNNY     57  34  41 NE15      30.13F
BEACH            N/A     59  34  38 MISG      30.19F
TIOGA            N/A     59  34  38 VRB3G12   30.17R
WATFORD CITY     N/A     61  34  36 VRB6G12   30.15S
BISMARCK       SUNNY     59  37  44 NE25G37   30.09R
GRAND FORKS    CLOUDY    54  44  69 NE21G26   30.02R
FARGO          CLOUDY    50  47  89 N20G28    29.96R
BUFFALO SD       N/A     58  35  42 N12G17    30.09F
RAPID CITY     SUNNY     56  36  47 N15G23    30.14F
$$

REGIONAL REPORTS...WYOMING/IDAHO/WASHINGTON

CITY           SKY/WX    TMP DP  RH WIND       PRES   REMARKS
GILLETTE       SUNNY     56  35  45 N10       30.19F
SHERIDAN       SUNNY     60  37  42 VRB5      30.21F
BUFFALO WY     SUNNY     57  31  37 N18G25    30.23S
CODY           SUNNY     60  33  36 CALM      30.22F
YELLOWSTONE LA   N/A     40  31  70 SE3       30.35F
IDAHO FALLS    CLOUDY    62  43  49 N6        30.23F
SALMON         SUNNY     57  43  58 CALM      30.19F
BOISE          MOSUNNY   70  41  34 SE9       30.12F
SPOKANE        MOSUNNY   70  48  45 SE3       30.04F
$$

REGIONAL REPORTS...ALBERTA

CITY           SKY/WX    TMP DP  RH WIND       PRES   REMARKS
EDMONTON       PTSUNNY   72  45  37 SW8       29.78F
CALGARY        PTSUNNY   66  37  34 SW8       29.92F
LETHBRIDGE     PTSUNNY   73  43  33 SW16      29.95F
MEDICINE HAT   PTSUNNY   68  37  32 S21G29    29.97F
WATERTON GATE    N/A     64  37  36 SW20G28     N/A
CARDSTON         N/A     72  43  35 W9          N/A
$$

REGIONAL REPORTS...SASKATCHEWAN

CITY           SKY/WX    TMP DP  RH WIND       PRES   REMARKS
REGINA         MOSUNNY   66  32  28 SE9       30.11F
SASKATOON      PTSUNNY   68  36  30 SW14G22   30.03F
CYPRESS HILLS    N/A     55  34  44 S13         N/A
$$




USA.gov is the U.S. government's official web portal to all federal, state and local government web resources and services.